User: anonymous   Login
Location: Albuquerque Trailhead
(34.7934°N, 106.3736°W)
Time: 12:55:50
(UTC+00:00)
Language:

TIGRISAT - Orbit

View from above orbital plane
View from above orbital plane
View from above satellite
View from above satellite

Ground track
Ground track

The orbit data is extracted from the following two-line orbital elements,

1 40043U 14033AK  23086.17382773  .00002910  00000-0  41802-3 0  9999
2 40043  97.6614 265.3930 0057248 320.7923  38.9147 14.76072568471613
Epoch (UTC): 27 March 2023 04:10:18
Eccentricity: 0.0057248
inclination: 97.6614°
perigee height: 601 km
apogee height: 682 km
right ascension of ascending node: 265.3930°
argument of perigee: 320.7923°
revolutions per day: 14.76072568
mean anomaly at epoch: 38.9147°
orbit number at epoch: 47161

The dashed part of the orbit path shows where the satellite is in the earth's shadow,  

DLR